owner,sensor,date,latitude,longitude,air_pressure(mBar),qcFlag 
NDBC,ioos:station:NOAA.NDBC:SMKF1:1,2019-04-01T00:50:00Z,24.6280,-81.1120,1016.4,1111122 
NDBC,ioos:station:NOAA.NDBC:SMKF1:1,2019-04-01T01:50:00Z,24.6280,-81.1120,1017.0,1111122 
NDBC,ioos:station:NOAA.NDBC:SMKF1:1,2019-04-01T02:50:00Z,24.6280,-81.1120,1017.4,1111122 
NDBC,ioos:station:NOAA.NDBC:SMKF1:1,2019-04-01T03:50:00Z,24.6280,-81.1120,1017.4,1111122 
NDBC,ioos:station:NOAA.NDBC:SMKF1:1,2019-04-01T04:50:00Z,24.6280,-81.1120,1017.3,1111122 
NDBC,ioos:station:NOAA.NDBC:SMKF1:1,2019-04-01T05:50:00Z,24.6280,-81.1120,1016.8,1111122 
NDBC,ioos:station:NOAA.NDBC:SMKF1:1,2019-04-01T06:50:00Z,24.6280,-81.1120,1016.1,1111122 
NDBC,ioos:station:NOAA.NDBC:SMKF1:1,2019-04-01T07:50:00Z,24.6280,-81.1120,1015.8,1111122 
NDBC,ioos:station:NOAA.NDBC:SMKF1:1,2019-04-01T08:50:00Z,24.6280,-81.1120,1015.9,1111122 
NDBC,ioos:station:NOAA.NDBC:SMKF1:1,2019-04-01T09:50:00Z,24.6280,-81.1120,1015.8,1111122 
NDBC,ioos:station:NOAA.NDBC:SMKF1:1,2019-04-01T10:50:00Z,24.6280,-81.1120,1016.3,1111122 
NDBC,ioos:station:NOAA.NDBC:SMKF1:1,2019-04-01T11:50:00Z,24.6280,-81.1120,1016.8,1111122 
NDBC,ioos:station:NOAA.NDBC:SMKF1:1,2019-04-01T12:50:00Z,24.6280,-81.1120,1017.5,1111122 
NDBC,ioos:station:NOAA.NDBC:SMKF1:1,2019-04-01T13:50:00Z,24.6280,-81.1120,1017.8,1111122 
NDBC,ioos:station:NOAA.NDBC:SMKF1:1,2019-04-01T14:50:00Z,24.6280,-81.1120,1017.7,1111122 
NDBC,ioos:station:NOAA.NDBC:SMKF1:1,2019-04-01T15:50:00Z,24.6280,-81.1120,1017.9,1111122 
NDBC,ioos:station:NOAA.NDBC:SMKF1:1,2019-04-01T16:50:00Z,24.6280,-81.1120,1017.7,1111122 
NDBC,ioos:station:NOAA.NDBC:SMKF1:1,2019-04-01T17:50:00Z,24.6280,-81.1120,1017.4,1111122 
NDBC,ioos:station:NOAA.NDBC:SMKF1:1,2019-04-01T18:50:00Z,24.6280,-81.1120,1016.8,1111122 
NDBC,ioos:station:NOAA.NDBC:SMKF1:1,2019-04-01T19:50:00Z,24.6280,-81.1120,1016.3,1111122 
NDBC,ioos:station:NOAA.NDBC:SMKF1:1,2019-04-01T20:50:00Z,24.6280,-81.1120,1016.3,1111122 
NDBC,ioos:station:NOAA.NDBC:SMKF1:1,2019-04-01T21:50:00Z,24.6280,-81.1120,1016.4,1111122 
NDBC,ioos:station:NOAA.NDBC:SMKF1:1,2019-04-01T22:50:00Z,24.6280,-81.1120,1016.2,1111122 
NDBC,ioos:station:NOAA.NDBC:SMKF1:1,2019-04-01T23:50:00Z,24.6280,-81.1120,1016.3,1111122 
NDBC,ioos:station:NOAA.NDBC:SMKF1:1,2019-04-02T00:50:00Z,24.6280,-81.1120,1016.8,1111122 
NDBC,ioos:station:NOAA.NDBC:SMKF1:1,2019-04-02T01:50:00Z,24.6280,-81.1120,1017.0,1111122 
NDBC,ioos:station:NOAA.NDBC:SMKF1:1,2019-04-02T02:50:00Z,24.6280,-81.1120,1017.7,1111122 
NDBC,ioos:station:NOAA.NDBC:SMKF1:1,2019-04-02T03:50:00Z,24.6280,-81.1120,1018.1,1111122 
NDBC,ioos:station:NOAA.NDBC:SMKF1:1,2019-04-02T04:50:00Z,24.6280,-81.1120,1018.0,1111122 
NDBC,ioos:station:NOAA.NDBC:SMKF1:1,2019-04-02T05:50:00Z,24.6280,-81.1120,1017.5,1111122 
NDBC,ioos:station:NOAA.NDBC:SMKF1:1,2019-04-02T06:50:00Z,24.6280,-81.1120,1017.0,1111122 
NDBC,ioos:station:NOAA.NDBC:SMKF1:1,2019-04-02T07:50:00Z,24.6280,-81.1120,1016.5,1111122 
NDBC,ioos:station:NOAA.NDBC:SMKF1:1,2019-04-02T08:50:00Z,24.6280,-81.1120,1016.6,1111122 
NDBC,ioos:station:NOAA.NDBC:SMKF1:1,2019-04-02T09:50:00Z,24.6280,-81.1120,1016.8,1111122 
NDBC,ioos:station:NOAA.NDBC:SMKF1:1,2019-04-02T10:50:00Z,24.6280,-81.1120,1017.0,1111122 
NDBC,ioos:station:NOAA.NDBC:SMKF1:1,2019-04-02T11:50:00Z,24.6280,-81.1120,1017.7,1111122 
NDBC,ioos:station:NOAA.NDBC:SMKF1:1,2019-04-02T12:50:00Z,24.6280,-81.1120,1018.3,1111122 
NDBC,ioos:station:NOAA.NDBC:SMKF1:1,2019-04-02T13:50:00Z,24.6280,-81.1120,1018.3,1111122 
NDBC,ioos:station:NOAA.NDBC:SMKF1:1,2019-04-02T14:50:00Z,24.6280,-81.1120,1018.2,1111122 
NDBC,ioos:station:NOAA.NDBC:SMKF1:1,2019-04-02T15:50:00Z,24.6280,-81.1120,1018.7,1111122 
NDBC,ioos:station:NOAA.NDBC:SMKF1:1,2019-04-02T16:50:00Z,24.6280,-81.1120,1018.6,1111122 
NDBC,ioos:station:NOAA.NDBC:SMKF1:1,2019-04-02T17:50:00Z,24.6280,-81.1120,1018.2,1111122 
NDBC,ioos:station:NOAA.NDBC:SMKF1:1,2019-04-02T18:50:00Z,24.6280,-81.1120,1017.6,1111122 
NDBC,ioos:station:NOAA.NDBC:SMKF1:1,2019-04-02T19:50:00Z,24.6280,-81.1120,1017.0,1111122 
NDBC,ioos:station:NOAA.NDBC:SMKF1:1,2019-04-02T20:50:00Z,24.6280,-81.1120,1016.8,1111122 
NDBC,ioos:station:NOAA.NDBC:SMKF1:1,2019-04-02T21:50:00Z,24.6280,-81.1120,1016.8,1111122 
NDBC,ioos:station:NOAA.NDBC:SMKF1:1,2019-04-02T22:50:00Z,24.6280,-81.1120,1017.1,1111122 
NDBC,ioos:station:NOAA.NDBC:SMKF1:1,2019-04-02T23:50:00Z,24.6280,-81.1120,1017.5,1111122 
NDBC,ioos:station:NOAA.NDBC:SMKF1:1,2019-04-03T00:54:00Z,24.6280,-81.1120,1018.4,1111122 
NDBC,ioos:station:NOAA.NDBC:SMKF1:1,2019-04-03T01:50:00Z,24.6280,-81.1120,1018.9,1111122 
NDBC,ioos:station:NOAA.NDBC:SMKF1:1,2019-04-03T02:59:00Z,24.6280,-81.1120,1019.6,1111122 
NDBC,ioos:station:NOAA.NDBC:SMKF1:1,2019-04-03T03:50:00Z,24.6280,-81.1120,1019.9,1111122 
NDBC,ioos:station:NOAA.NDBC:SMKF1:1,2019-04-03T04:50:00Z,24.6280,-81.1120,1020.0,1111122 
NDBC,ioos:station:NOAA.NDBC:SMKF1:1,2019-04-03T05:50:00Z,24.6280,-81.1120,1019.8,1111122 
NDBC,ioos:station:NOAA.NDBC:SMKF1:1,2019-04-03T06:50:00Z,24.6280,-81.1120,1019.3,1111122 
NDBC,ioos:station:NOAA.NDBC:SMKF1:1,2019-04-03T07:50:00Z,24.6280,-81.1120,1019.0,1111122 
NDBC,ioos:station:NOAA.NDBC:SMKF1:1,2019-04-03T08:50:00Z,24.6280,-81.1120,1019.0,1111122 
NDBC,ioos:station:NOAA.NDBC:SMKF1:1,2019-04-03T09:50:00Z,24.6280,-81.1120,1019.5,1111122 
NDBC,ioos:station:NOAA.NDBC:SMKF1:1,2019-04-03T10:50:00Z,24.6280,-81.1120,1020.3,1111122 
NDBC,ioos:station:NOAA.NDBC:SMKF1:1,2019-04-03T11:50:00Z,24.6280,-81.1120,1020.9,1111122 
NDBC,ioos:station:NOAA.NDBC:SMKF1:1,2019-04-03T12:50:00Z,24.6280,-81.1120,1021.4,1111122 
NDBC,ioos:station:NOAA.NDBC:SMKF1:1,2019-04-03T13:50:00Z,24.6280,-81.1120,1022.1,1111122 
NDBC,ioos:station:NOAA.NDBC:SMKF1:1,2019-04-03T14:50:00Z,24.6280,-81.1120,1022.3,1111122 
NDBC,ioos:station:NOAA.NDBC:SMKF1:1,2019-04-03T15:50:00Z,24.6280,-81.1120,1022.7,1111122 
NDBC,ioos:station:NOAA.NDBC:SMKF1:1,2019-04-03T16:50:00Z,24.6280,-81.1120,1022.6,1111122 
NDBC,ioos:station:NOAA.NDBC:SMKF1:1,2019-04-03T17:50:00Z,24.6280,-81.1120,1022.0,1111122 
NDBC,ioos:station:NOAA.NDBC:SMKF1:1,2019-04-03T18:50:00Z,24.6280,-81.1120,1021.5,1111122 
NDBC,ioos:station:NOAA.NDBC:SMKF1:1,2019-04-03T19:50:00Z,24.6280,-81.1120,1020.7,1111122 
NDBC,ioos:station:NOAA.NDBC:SMKF1:1,2019-04-03T20:50:00Z,24.6280,-81.1120,1020.3,1111122 
NDBC,ioos:station:NOAA.NDBC:SMKF1:1,2019-04-03T21:50:00Z,24.6280,-81.1120,1020.2,1111122 
NDBC,ioos:station:NOAA.NDBC:SMKF1:1,2019-04-03T22:50:00Z,24.6280,-81.1120,1020.3,1111122 
NDBC,ioos:station:NOAA.NDBC:SMKF1:1,2019-04-03T23:50:00Z,24.6280,-81.1120,1020.2,1111122 
NDBC,ioos:station:NOAA.NDBC:SMKF1:1,2019-04-04T00:50:00Z,24.6280,-81.1120,1020.6,1111122 
NDBC,ioos:station:NOAA.NDBC:SMKF1:1,2019-04-04T01:50:00Z,24.6280,-81.1120,1021.5,1111122 
NDBC,ioos:station:NOAA.NDBC:SMKF1:1,2019-04-04T02:50:00Z,24.6280,-81.1120,1022.0,1111122 
NDBC,ioos:station:NOAA.NDBC:SMKF1:1,2019-04-04T03:50:00Z,24.6280,-81.1120,1021.8,1111122 
NDBC,ioos:station:NOAA.NDBC:SMKF1:1,2019-04-04T04:50:00Z,24.6280,-81.1120,1021.9,1111122 
NDBC,ioos:station:NOAA.NDBC:SMKF1:1,2019-04-04T05:50:00Z,24.6280,-81.1120,1021.4,1111122 
NDBC,ioos:station:NOAA.NDBC:SMKF1:1,2019-04-04T06:50:00Z,24.6280,-81.1120,1021.1,1111122 
NDBC,ioos:station:NOAA.NDBC:SMKF1:1,2019-04-04T07:50:00Z,24.6280,-81.1120,1020.7,1111122 
NDBC,ioos:station:NOAA.NDBC:SMKF1:1,2019-04-04T08:50:00Z,24.6280,-81.1120,1020.4,1111122 
NDBC,ioos:station:NOAA.NDBC:SMKF1:1,2019-04-04T09:50:00Z,24.6280,-81.1120,1020.7,1111122 
NDBC,ioos:station:NOAA.NDBC:SMKF1:1,2019-04-04T10:50:00Z,24.6280,-81.1120,1020.8,1111122 
NDBC,ioos:station:NOAA.NDBC:SMKF1:1,2019-04-04T11:50:00Z,24.6280,-81.1120,1021.6,1111122 
NDBC,ioos:station:NOAA.NDBC:SMKF1:1,2019-04-04T12:50:00Z,24.6280,-81.1120,1021.9,1111122 
NDBC,ioos:station:NOAA.NDBC:SMKF1:1,2019-04-04T13:50:00Z,24.6280,-81.1120,1022.3,1111122 
NDBC,ioos:station:NOAA.NDBC:SMKF1:1,2019-04-04T14:50:00Z,24.6280,-81.1120,1022.6,1111122 
NDBC,ioos:station:NOAA.NDBC:SMKF1:1,2019-04-04T15:50:00Z,24.6280,-81.1120,1022.2,1111122 
NDBC,ioos:station:NOAA.NDBC:SMKF1:1,2019-04-04T16:50:00Z,24.6280,-81.1120,1021.7,1111122 
NDBC,ioos:station:NOAA.NDBC:SMKF1:1,2019-04-04T17:50:00Z,24.6280,-81.1120,1021.0,1111122 
NDBC,ioos:station:NOAA.NDBC:SMKF1:1,2019-04-04T18:50:00Z,24.6280,-81.1120,1020.3,1111122 
NDBC,ioos:station:NOAA.NDBC:SMKF1:1,2019-04-04T19:50:00Z,24.6280,-81.1120,1019.8,1111122 
NDBC,ioos:station:NOAA.NDBC:SMKF1:1,2019-04-04T20:50:00Z,24.6280,-81.1120,1019.4,1111122 
NDBC,ioos:station:NOAA.NDBC:SMKF1:1,2019-04-04T21:50:00Z,24.6280,-81.1120,1019.5,1111122 
NDBC,ioos:station:NOAA.NDBC:SMKF1:1,2019-04-04T22:50:00Z,24.6280,-81.1120,1019.2,1111122 
NDBC,ioos:station:NOAA.NDBC:SMKF1:1,2019-04-04T23:50:00Z,24.6280,-81.1120,1019.1,1111122 
NDBC,ioos:station:NOAA.NDBC:SMKF1:1,2019-04-05T00:50:00Z,24.6280,-81.1120,1019.2,1111122 
NDBC,ioos:station:NOAA.NDBC:SMKF1:1,2019-04-05T01:50:00Z,24.6280,-81.1120,1019.3,1111122 
NDBC,ioos:station:NOAA.NDBC:SMKF1:1,2019-04-05T02:50:00Z,24.6280,-81.1120,1019.7,1111122 
NDBC,ioos:station:NOAA.NDBC:SMKF1:1,2019-04-05T03:50:00Z,24.6280,-81.1120,1019.5,1111122 
NDBC,ioos:station:NOAA.NDBC:SMKF1:1,2019-04-05T04:50:00Z,24.6280,-81.1120,1019.2,1111122 
NDBC,ioos:station:NOAA.NDBC:SMKF1:1,2019-04-05T05:50:00Z,24.6280,-81.1120,1019.1,1111122 
NDBC,ioos:station:NOAA.NDBC:SMKF1:1,2019-04-05T06:50:00Z,24.6280,-81.1120,1018.9,1111122 
NDBC,ioos:station:NOAA.NDBC:SMKF1:1,2019-04-05T07:50:00Z,24.6280,-81.1120,1018.3,1111122 
NDBC,ioos:station:NOAA.NDBC:SMKF1:1,2019-04-05T08:50:00Z,24.6280,-81.1120,1018.4,1111122 
NDBC,ioos:station:NOAA.NDBC:SMKF1:1,2019-04-05T09:50:00Z,24.6280,-81.1120,1018.4,1111122 
NDBC,ioos:station:NOAA.NDBC:SMKF1:1,2019-04-05T10:50:00Z,24.6280,-81.1120,1018.4,1111122 
NDBC,ioos:station:NOAA.NDBC:SMKF1:1,2019-04-05T11:50:00Z,24.6280,-81.1120,1018.6,1111122 
NDBC,ioos:station:NOAA.NDBC:SMKF1:1,2019-04-05T12:50:00Z,24.6280,-81.1120,1018.9,1111122 
NDBC,ioos:station:NOAA.NDBC:SMKF1:1,2019-04-05T13:50:00Z,24.6280,-81.1120,1019.0,1111122 
NDBC,ioos:station:NOAA.NDBC:SMKF1:1,2019-04-05T14:50:00Z,24.6280,-81.1120,1019.9,1111122 
NDBC,ioos:station:NOAA.NDBC:SMKF1:1,2019-04-05T15:50:00Z,24.6280,-81.1120,1019.7,1111122 
NDBC,ioos:station:NOAA.NDBC:SMKF1:1,2019-04-05T16:50:00Z,24.6280,-81.1120,1019.5,1111122 
NDBC,ioos:station:NOAA.NDBC:SMKF1:1,2019-04-05T17:50:00Z,24.6280,-81.1120,1018.9,1111122 
NDBC,ioos:station:NOAA.NDBC:SMKF1:1,2019-04-05T18:50:00Z,24.6280,-81.1120,1017.9,1111122 
NDBC,ioos:station:NOAA.NDBC:SMKF1:1,2019-04-05T19:50:00Z,24.6280,-81.1120,1016.6,1111122 
NDBC,ioos:station:NOAA.NDBC:SMKF1:1,2019-04-05T20:50:00Z,24.6280,-81.1120,1016.6,1111122 
NDBC,ioos:station:NOAA.NDBC:SMKF1:1,2019-04-05T21:50:00Z,24.6280,-81.1120,1016.7,1111122 
NDBC,ioos:station:NOAA.NDBC:SMKF1:1,2019-04-05T22:50:00Z,24.6280,-81.1120,1016.6,1111122 
NDBC,ioos:station:NOAA.NDBC:SMKF1:1,2019-04-05T23:50:00Z,24.6280,-81.1120,1016.8,1111122 
NDBC,ioos:station:NOAA.NDBC:SMKF1:1,2019-04-06T00:50:00Z,24.6280,-81.1120,1017.4,1111122 
NDBC,ioos:station:NOAA.NDBC:SMKF1:1,2019-04-06T01:50:00Z,24.6280,-81.1120,1017.9,1111122 
NDBC,ioos:station:NOAA.NDBC:SMKF1:1,2019-04-06T02:50:00Z,24.6280,-81.1120,1018.6,1111122 
NDBC,ioos:station:NOAA.NDBC:SMKF1:1,2019-04-06T03:50:00Z,24.6280,-81.1120,1018.8,1111122 
NDBC,ioos:station:NOAA.NDBC:SMKF1:1,2019-04-06T04:50:00Z,24.6280,-81.1120,1018.9,1111122 
NDBC,ioos:station:NOAA.NDBC:SMKF1:1,2019-04-06T05:50:00Z,24.6280,-81.1120,1018.6,1111122 
NDBC,ioos:station:NOAA.NDBC:SMKF1:1,2019-04-06T06:50:00Z,24.6280,-81.1120,1018.1,1111122 
NDBC,ioos:station:NOAA.NDBC:SMKF1:1,2019-04-06T07:50:00Z,24.6280,-81.1120,1017.4,1111122 
NDBC,ioos:station:NOAA.NDBC:SMKF1:1,2019-04-06T08:50:00Z,24.6280,-81.1120,1017.1,1111122 
NDBC,ioos:station:NOAA.NDBC:SMKF1:1,2019-04-06T09:50:00Z,24.6280,-81.1120,1017.1,1111122 
NDBC,ioos:station:NOAA.NDBC:SMKF1:1,2019-04-06T10:50:00Z,24.6280,-81.1120,1018.0,1111122 
NDBC,ioos:station:NOAA.NDBC:SMKF1:1,2019-04-06T11:50:00Z,24.6280,-81.1120,1018.7,1111122 
NDBC,ioos:station:NOAA.NDBC:SMKF1:1,2019-04-06T12:50:00Z,24.6280,-81.1120,1019.0,1111122 
NDBC,ioos:station:NOAA.NDBC:SMKF1:1,2019-04-06T13:50:00Z,24.6280,-81.1120,1019.6,1111122 
NDBC,ioos:station:NOAA.NDBC:SMKF1:1,2019-04-06T14:50:00Z,24.6280,-81.1120,1020.0,1111122 
NDBC,ioos:station:NOAA.NDBC:SMKF1:1,2019-04-06T15:50:00Z,24.6280,-81.1120,1020.0,1111122 
NDBC,ioos:station:NOAA.NDBC:SMKF1:1,2019-04-06T16:50:00Z,24.6280,-81.1120,1019.7,1111122 
NDBC,ioos:station:NOAA.NDBC:SMKF1:1,2019-04-06T17:50:00Z,24.6280,-81.1120,1019.0,1111122 
NDBC,ioos:station:NOAA.NDBC:SMKF1:1,2019-04-06T18:50:00Z,24.6280,-81.1120,1018.4,1111122 
NDBC,ioos:station:NOAA.NDBC:SMKF1:1,2019-04-06T19:50:00Z,24.6280,-81.1120,1017.9,1111122 
NDBC,ioos:station:NOAA.NDBC:SMKF1:1,2019-04-06T20:50:00Z,24.6280,-81.1120,1017.7,1111122 
NDBC,ioos:station:NOAA.NDBC:SMKF1:1,2019-04-06T21:50:00Z,24.6280,-81.1120,1017.2,1111122 
NDBC,ioos:station:NOAA.NDBC:SMKF1:1,2019-04-06T22:50:00Z,24.6280,-81.1120,1017.1,1111122 
NDBC,ioos:station:NOAA.NDBC:SMKF1:1,2019-04-06T23:50:00Z,24.6280,-81.1120,1017.6,1111122 
NDBC,ioos:station:NOAA.NDBC:SMKF1:1,2019-04-07T00:50:00Z,24.6280,-81.1120,1018.3,1111122 
NDBC,ioos:station:NOAA.NDBC:SMKF1:1,2019-04-07T01:50:00Z,24.6280,-81.1120,1018.7,1111122 
NDBC,ioos:station:NOAA.NDBC:SMKF1:1,2019-04-07T02:50:00Z,24.6280,-81.1120,1018.9,1111122 
NDBC,ioos:station:NOAA.NDBC:SMKF1:1,2019-04-07T03:50:00Z,24.6280,-81.1120,1019.1,1111122 
NDBC,ioos:station:NOAA.NDBC:SMKF1:1,2019-04-07T04:50:00Z,24.6280,-81.1120,1019.1,1111122 
NDBC,ioos:station:NOAA.NDBC:SMKF1:1,2019-04-07T05:50:00Z,24.6280,-81.1120,1018.7,1111122 
NDBC,ioos:station:NOAA.NDBC:SMKF1:1,2019-04-07T06:50:00Z,24.6280,-81.1120,1018.1,1111122 
NDBC,ioos:station:NOAA.NDBC:SMKF1:1,2019-04-07T07:50:00Z,24.6280,-81.1120,1017.8,1111122 
NDBC,ioos:station:NOAA.NDBC:SMKF1:1,2019-04-07T08:50:00Z,24.6280,-81.1120,1017.8,1111122 
NDBC,ioos:station:NOAA.NDBC:SMKF1:1,2019-04-07T09:50:00Z,24.6280,-81.1120,1017.9,1111122 
NDBC,ioos:station:NOAA.NDBC:SMKF1:1,2019-04-07T10:50:00Z,24.6280,-81.1120,1018.2,1111122 
NDBC,ioos:station:NOAA.NDBC:SMKF1:1,2019-04-07T11:50:00Z,24.6280,-81.1120,1019.1,1111122 
NDBC,ioos:station:NOAA.NDBC:SMKF1:1,2019-04-07T12:50:00Z,24.6280,-81.1120,1019.6,1111122 
NDBC,ioos:station:NOAA.NDBC:SMKF1:1,2019-04-07T13:50:00Z,24.6280,-81.1120,1020.1,1111122 
NDBC,ioos:station:NOAA.NDBC:SMKF1:1,2019-04-07T14:50:00Z,24.6280,-81.1120,1020.4,1111122 
NDBC,ioos:station:NOAA.NDBC:SMKF1:1,2019-04-07T15:50:00Z,24.6280,-81.1120,1020.4,1111122 
NDBC,ioos:station:NOAA.NDBC:SMKF1:1,2019-04-07T16:50:00Z,24.6280,-81.1120,1019.9,1111122 
NDBC,ioos:station:NOAA.NDBC:SMKF1:1,2019-04-07T17:50:00Z,24.6280,-81.1120,1019.3,1111122 
NDBC,ioos:station:NOAA.NDBC:SMKF1:1,2019-04-07T18:50:00Z,24.6280,-81.1120,1018.5,1111122 
NDBC,ioos:station:NOAA.NDBC:SMKF1:1,2019-04-07T19:50:00Z,24.6280,-81.1120,1017.9,1111122 
NDBC,ioos:station:NOAA.NDBC:SMKF1:1,2019-04-07T20:50:00Z,24.6280,-81.1120,1017.5,1111122 
NDBC,ioos:station:NOAA.NDBC:SMKF1:1,2019-04-07T21:50:00Z,24.6280,-81.1120,1017.0,1111122 
NDBC,ioos:station:NOAA.NDBC:SMKF1:1,2019-04-07T22:50:00Z,24.6280,-81.1120,1017.4,1111122 
NDBC,ioos:station:NOAA.NDBC:SMKF1:1,2019-04-07T23:50:00Z,24.6280,-81.1120,1017.5,1111122 
NDBC,ioos:station:NOAA.NDBC:SMKF1:1,2019-04-08T00:50:00Z,24.6280,-81.1120,1017.3,1111122 
NDBC,ioos:station:NOAA.NDBC:SMKF1:1,2019-04-08T01:50:00Z,24.6280,-81.1120,1017.6,1111122 
NDBC,ioos:station:NOAA.NDBC:SMKF1:1,2019-04-08T02:50:00Z,24.6280,-81.1120,1018.0,1111122 
NDBC,ioos:station:NOAA.NDBC:SMKF1:1,2019-04-08T03:50:00Z,24.6280,-81.1120,1017.9,1111122 
NDBC,ioos:station:NOAA.NDBC:SMKF1:1,2019-04-08T04:50:00Z,24.6280,-81.1120,1017.6,1111122 
NDBC,ioos:station:NOAA.NDBC:SMKF1:1,2019-04-08T05:50:00Z,24.6280,-81.1120,1017.4,1111122 
NDBC,ioos:station:NOAA.NDBC:SMKF1:1,2019-04-08T06:50:00Z,24.6280,-81.1120,1016.7,1111122 
NDBC,ioos:station:NOAA.NDBC:SMKF1:1,2019-04-08T07:50:00Z,24.6280,-81.1120,1016.1,1111122 
NDBC,ioos:station:NOAA.NDBC:SMKF1:1,2019-04-08T08:50:00Z,24.6280,-81.1120,1016.1,1111122 
NDBC,ioos:station:NOAA.NDBC:SMKF1:1,2019-04-08T09:50:00Z,24.6280,-81.1120,1016.3,1111122 
NDBC,ioos:station:NOAA.NDBC:SMKF1:1,2019-04-08T10:50:00Z,24.6280,-81.1120,1016.5,1111122 
NDBC,ioos:station:NOAA.NDBC:SMKF1:1,2019-04-08T11:50:00Z,24.6280,-81.1120,1016.6,1111122 
NDBC,ioos:station:NOAA.NDBC:SMKF1:1,2019-04-08T12:50:00Z,24.6280,-81.1120,1016.9,1111122 
NDBC,ioos:station:NOAA.NDBC:SMKF1:1,2019-04-08T13:50:00Z,24.6280,-81.1120,1017.3,1111122 
NDBC,ioos:station:NOAA.NDBC:SMKF1:1,2019-04-08T14:50:00Z,24.6280,-81.1120,1017.5,1111122 
NDBC,ioos:station:NOAA.NDBC:SMKF1:1,2019-04-08T15:50:00Z,24.6280,-81.1120,1017.7,1111122 
NDBC,ioos:station:NOAA.NDBC:SMKF1:1,2019-04-08T16:50:00Z,24.6280,-81.1120,1017.5,1111122 
NDBC,ioos:station:NOAA.NDBC:SMKF1:1,2019-04-08T17:50:00Z,24.6280,-81.1120,1016.7,1111122 
NDBC,ioos:station:NOAA.NDBC:SMKF1:1,2019-04-08T18:50:00Z,24.6280,-81.1120,1016.2,1111122 
NDBC,ioos:station:NOAA.NDBC:SMKF1:1,2019-04-08T19:50:00Z,24.6280,-81.1120,1015.6,1111122 
NDBC,ioos:station:NOAA.NDBC:SMKF1:1,2019-04-08T20:50:00Z,24.6280,-81.1120,1015.0,1111122 
NDBC,ioos:station:NOAA.NDBC:SMKF1:1,2019-04-08T21:50:00Z,24.6280,-81.1120,1014.8,1111122 
NDBC,ioos:station:NOAA.NDBC:SMKF1:1,2019-04-08T22:50:00Z,24.6280,-81.1120,1014.5,1111122 
NDBC,ioos:station:NOAA.NDBC:SMKF1:1,2019-04-08T23:50:00Z,24.6280,-81.1120,1014.4,1111122 
NDBC,ioos:station:NOAA.NDBC:SMKF1:1,2019-04-09T00:50:00Z,24.6280,-81.1120,1014.8,1111122 
NDBC,ioos:station:NOAA.NDBC:SMKF1:1,2019-04-09T01:50:00Z,24.6280,-81.1120,1015.1,1111122 
NDBC,ioos:station:NOAA.NDBC:SMKF1:1,2019-04-09T02:50:00Z,24.6280,-81.1120,1015.4,1111122 
NDBC,ioos:station:NOAA.NDBC:SMKF1:1,2019-04-09T03:50:00Z,24.6280,-81.1120,1015.4,1111122 
NDBC,ioos:station:NOAA.NDBC:SMKF1:1,2019-04-09T04:50:00Z,24.6280,-81.1120,1014.8,1111122 
NDBC,ioos:station:NOAA.NDBC:SMKF1:1,2019-04-09T05:50:00Z,24.6280,-81.1120,1014.2,1111122 
NDBC,ioos:station:NOAA.NDBC:SMKF1:1,2019-04-09T06:50:00Z,24.6280,-81.1120,1013.9,1111122 
NDBC,ioos:station:NOAA.NDBC:SMKF1:1,2019-04-09T07:50:00Z,24.6280,-81.1120,1012.9,1111122 
NDBC,ioos:station:NOAA.NDBC:SMKF1:1,2019-04-09T08:50:00Z,24.6280,-81.1120,1012.1,1111122 
NDBC,ioos:station:NOAA.NDBC:SMKF1:1,2019-04-09T09:50:00Z,24.6280,-81.1120,1011.9,1111122 
NDBC,ioos:station:NOAA.NDBC:SMKF1:1,2019-04-09T10:50:00Z,24.6280,-81.1120,1012.5,1111122 
NDBC,ioos:station:NOAA.NDBC:SMKF1:1,2019-04-09T11:50:00Z,24.6280,-81.1120,1013.0,1111122 
NDBC,ioos:station:NOAA.NDBC:SMKF1:1,2019-04-09T12:50:00Z,24.6280,-81.1120,1012.6,1111122 
NDBC,ioos:station:NOAA.NDBC:SMKF1:1,2019-04-09T13:50:00Z,24.6280,-81.1120,1013.3,1111122 
NDBC,ioos:station:NOAA.NDBC:SMKF1:1,2019-04-09T14:50:00Z,24.6280,-81.1120,1013.2,1111122 
NDBC,ioos:station:NOAA.NDBC:SMKF1:1,2019-04-09T15:50:00Z,24.6280,-81.1120,1012.6,1111122 
NDBC,ioos:station:NOAA.NDBC:SMKF1:1,2019-04-09T16:50:00Z,24.6280,-81.1120,1012.2,1111122 
NDBC,ioos:station:NOAA.NDBC:SMKF1:1,2019-04-09T17:50:00Z,24.6280,-81.1120,1012.0,1111122 
NDBC,ioos:station:NOAA.NDBC:SMKF1:1,2019-04-09T18:50:00Z,24.6280,-81.1120,1010.9,1111122 
NDBC,ioos:station:NOAA.NDBC:SMKF1:1,2019-04-09T19:50:00Z,24.6280,-81.1120,1010.5,1111122 
NDBC,ioos:station:NOAA.NDBC:SMKF1:1,2019-04-09T20:50:00Z,24.6280,-81.1120,1010.4,1111122 
NDBC,ioos:station:NOAA.NDBC:SMKF1:1,2019-04-09T21:50:00Z,24.6280,-81.1120,1010.6,1111122 
NDBC,ioos:station:NOAA.NDBC:SMKF1:1,2019-04-09T22:50:00Z,24.6280,-81.1120,1011.4,1111122 
NDBC,ioos:station:NOAA.NDBC:SMKF1:1,2019-04-09T23:50:00Z,24.6280,-81.1120,1011.7,1111122 
NDBC,ioos:station:NOAA.NDBC:SMKF1:1,2019-04-10T00:50:00Z,24.6280,-81.1120,1011.7,1111122 
NDBC,ioos:station:NOAA.NDBC:SMKF1:1,2019-04-10T01:50:00Z,24.6280,-81.1120,1011.8,1111122 
NDBC,ioos:station:NOAA.NDBC:SMKF1:1,2019-04-10T02:50:00Z,24.6280,-81.1120,1011.9,1111122 
NDBC,ioos:station:NOAA.NDBC:SMKF1:1,2019-04-10T03:50:00Z,24.6280,-81.1120,1010.6,1111122 
NDBC,ioos:station:NOAA.NDBC:SMKF1:1,2019-04-10T04:50:00Z,24.6280,-81.1120,1010.3,1111122 
NDBC,ioos:station:NOAA.NDBC:SMKF1:1,2019-04-10T05:50:00Z,24.6280,-81.1120,1009.9,1111122 
NDBC,ioos:station:NOAA.NDBC:SMKF1:1,2019-04-10T06:50:00Z,24.6280,-81.1120,1009.4,1111122 
NDBC,ioos:station:NOAA.NDBC:SMKF1:1,2019-04-10T07:50:00Z,24.6280,-81.1120,1008.9,1111122 
NDBC,ioos:station:NOAA.NDBC:SMKF1:1,2019-04-10T08:50:00Z,24.6280,-81.1120,1009.1,1111122 
NDBC,ioos:station:NOAA.NDBC:SMKF1:1,2019-04-10T09:50:00Z,24.6280,-81.1120,1009.9,1111122 
NDBC,ioos:station:NOAA.NDBC:SMKF1:1,2019-04-10T10:50:00Z,24.6280,-81.1120,1009.9,1111122 
NDBC,ioos:station:NOAA.NDBC:SMKF1:1,2019-04-10T11:50:00Z,24.6280,-81.1120,1010.3,1111122 
NDBC,ioos:station:NOAA.NDBC:SMKF1:1,2019-04-10T12:50:00Z,24.6280,-81.1120,1010.5,1111122 
NDBC,ioos:station:NOAA.NDBC:SMKF1:1,2019-04-10T13:50:00Z,24.6280,-81.1120,1011.1,1111122 
NDBC,ioos:station:NOAA.NDBC:SMKF1:1,2019-04-10T14:50:00Z,24.6280,-81.1120,1011.1,1111122 
NDBC,ioos:station:NOAA.NDBC:SMKF1:1,2019-04-10T15:50:00Z,24.6280,-81.1120,1011.1,1111122 
NDBC,ioos:station:NOAA.NDBC:SMKF1:1,2019-04-10T16:50:00Z,24.6280,-81.1120,1010.7,1111122 
NDBC,ioos:station:NOAA.NDBC:SMKF1:1,2019-04-10T17:50:00Z,24.6280,-81.1120,1010.0,1111122 
NDBC,ioos:station:NOAA.NDBC:SMKF1:1,2019-04-10T18:50:00Z,24.6280,-81.1120,1009.4,1111122 
NDBC,ioos:station:NOAA.NDBC:SMKF1:1,2019-04-10T19:50:00Z,24.6280,-81.1120,1008.7,1111122 
NDBC,ioos:station:NOAA.NDBC:SMKF1:1,2019-04-10T20:50:00Z,24.6280,-81.1120,1008.5,1111122 
NDBC,ioos:station:NOAA.NDBC:SMKF1:1,2019-04-10T21:50:00Z,24.6280,-81.1120,1008.5,1111122 
NDBC,ioos:station:NOAA.NDBC:SMKF1:1,2019-04-10T22:50:00Z,24.6280,-81.1120,1008.8,1111122 
NDBC,ioos:station:NOAA.NDBC:SMKF1:1,2019-04-10T23:50:00Z,24.6280,-81.1120,1009.2,1111122 
NDBC,ioos:station:NOAA.NDBC:SMKF1:1,2019-04-11T00:50:00Z,24.6280,-81.1120,1009.3,1111122 
NDBC,ioos:station:NOAA.NDBC:SMKF1:1,2019-04-11T01:50:00Z,24.6280,-81.1120,1009.9,1111122 
NDBC,ioos:station:NOAA.NDBC:SMKF1:1,2019-04-11T02:50:00Z,24.6280,-81.1120,1010.5,1111122 
NDBC,ioos:station:NOAA.NDBC:SMKF1:1,2019-04-11T03:50:00Z,24.6280,-81.1120,1010.4,1111122 
NDBC,ioos:station:NOAA.NDBC:SMKF1:1,2019-04-11T04:50:00Z,24.6280,-81.1120,1010.4,1111122 
NDBC,ioos:station:NOAA.NDBC:SMKF1:1,2019-04-11T05:50:00Z,24.6280,-81.1120,1010.1,1111122 
NDBC,ioos:station:NOAA.NDBC:SMKF1:1,2019-04-11T06:50:00Z,24.6280,-81.1120,1009.6,1111122 
NDBC,ioos:station:NOAA.NDBC:SMKF1:1,2019-04-11T07:50:00Z,24.6280,-81.1120,1009.4,1111122 
NDBC,ioos:station:NOAA.NDBC:SMKF1:1,2019-04-11T08:50:00Z,24.6280,-81.1120,1009.3,1111122 
NDBC,ioos:station:NOAA.NDBC:SMKF1:1,2019-04-11T09:50:00Z,24.6280,-81.1120,1009.8,1111122 
NDBC,ioos:station:NOAA.NDBC:SMKF1:1,2019-04-11T10:50:00Z,24.6280,-81.1120,1010.4,1111122 
NDBC,ioos:station:NOAA.NDBC:SMKF1:1,2019-04-11T11:50:00Z,24.6280,-81.1120,1011.1,1111122 
NDBC,ioos:station:NOAA.NDBC:SMKF1:1,2019-04-11T12:50:00Z,24.6280,-81.1120,1011.7,1111122 
NDBC,ioos:station:NOAA.NDBC:SMKF1:1,2019-04-11T14:50:00Z,24.6280,-81.1120,1012.6,1111122 
NDBC,ioos:station:NOAA.NDBC:SMKF1:1,2019-04-11T15:50:00Z,24.6280,-81.1120,1012.5,1111122 
NDBC,ioos:station:NOAA.NDBC:SMKF1:1,2019-04-11T16:50:00Z,24.6280,-81.1120,1012.0,1111122 
NDBC,ioos:station:NOAA.NDBC:SMKF1:1,2019-04-11T17:50:00Z,24.6280,-81.1120,1011.7,1111122 
NDBC,ioos:station:NOAA.NDBC:SMKF1:1,2019-04-11T18:50:00Z,24.6280,-81.1120,1011.4,1111122 
NDBC,ioos:station:NOAA.NDBC:SMKF1:1,2019-04-11T19:50:00Z,24.6280,-81.1120,1011.1,1111122 
NDBC,ioos:station:NOAA.NDBC:SMKF1:1,2019-04-11T20:50:00Z,24.6280,-81.1120,1011.0,1111122 
NDBC,ioos:station:NOAA.NDBC:SMKF1:1,2019-04-11T21:50:00Z,24.6280,-81.1120,1011.1,1111122 
NDBC,ioos:station:NOAA.NDBC:SMKF1:1,2019-04-11T22:50:00Z,24.6280,-81.1120,1011.4,1111122 
NDBC,ioos:station:NOAA.NDBC:SMKF1:1,2019-04-11T23:50:00Z,24.6280,-81.1120,1011.5,1111122 
NDBC,ioos:station:NOAA.NDBC:SMKF1:1,2019-04-12T00:50:00Z,24.6280,-81.1120,1011.6,1111122 
NDBC,ioos:station:NOAA.NDBC:SMKF1:1,2019-04-12T01:50:00Z,24.6280,-81.1120,1012.3,1111122 